Torna al catalogo

ARIANE 42P+ DEB

LostHEO
NORAD 34191·DEBRIS·🇫🇷 France

Lanciato Oct 28, 1992 da Guiana Space Centre

Loading…

Prossimi Passaggi (prossime 24 ore)

TLE

ObsoletoSource: Space-Track

Epoca: Jun 13, 2021, 07:37 UTC

1 34191U 92072X   21164.31803326  .00000057  00000-0  32602-2 0  9995
2 34191   7.6615 125.5902 6514903 186.4857 318.7951  2.91970247168286

Traccia ARIANE 42P+ DEB in tempo reale con AllMySat

Download on the App Store